GW3789 Weather Reports


Display with metric or nautical units.
time (UTC)temp
F
wind
direction
speed
MPH
gust
MPH
rain 1hr
in
rain 24hr
in
rain mn
in
humidity
%
barometer
mb
20260510091011 59 114 4.0 8.0 0.00 0.00 0.00 73 1011.0
20260510090507 59 229 4.0 9.0 0.00 0.00 0.00 72 1011.0
20260510090019 59 134 4.0 9.0 0.00 0.00 0.00 72 1011.0
20260510085506 59 139 3.0 8.0 0.00 0.00 0.00 72 1011.0
20260510085006 58 169 3.0 8.0 0.00 0.00 0.00 77 1011.0
20260510084520 57 120 3.0 8.0 0.00 0.00 0.00 75 1011.0
20260510084007 57 124 2.0 11.0 0.00 0.00 0.00 77 1011.0
20260510083506 56 115 4.0 11.0 0.00 0.00 0.00 75 1011.0
20260510083004 56 129 2.0 9.0 0.00 0.00 0.00 76 1011.0
20260510082503 56 156 3.0 9.0 0.00 0.00 0.00 76 1011.0
20260510082002 56 149 4.0 9.0 0.00 0.00 0.00 75 1011.0
20260510081525 56 122 4.0 9.0 0.00 0.00 0.00 75 1011.1
20260510081004 56 157 5.0 8.0 0.00 0.00 0.00 74 1011.1
20260510080504 57 143 3.0 10.0 0.00 0.00 0.00 73 1011.1
20260510080011 57 130 3.0 10.0 0.00 0.00 0.00 74 1011.1
20260510075503 57 203 4.0 11.0 0.00 0.00 0.00 73 1011.1
20260510075006 58 178 5.0 11.0 0.00 0.00 0.00 72 1011.2
20260510074516 58 206 5.0 12.0 0.00 0.00 0.00 70 1011.2
20260510074009 59 166 5.0 12.0 0.00 0.00 0.00 69 1011.2
20260510073508 60 135 3.0 8.0 0.00 0.00 0.00 70 1011.1
20260510073020 60 150 2.0 7.0 0.00 0.00 0.00 70 1011.1
20260510072508 59 175 2.0 7.0 0.00 0.00 0.00 70 1011.1
20260510072008 58 210 2.0 7.0 0.00 0.00 0.00 71 1011.1
20260510071508 59 164 2.0 6.0 0.00 0.00 0.00 70 1011.1
20260510071003 59 122 2.0 5.0 0.00 0.00 0.00 72 1011.1
20260510070503 58 107 1.0 4.0 0.00 0.00 0.00 71 1011.0
20260510070011 57 111 1.0 4.0 0.00 0.00 0.00 74 1011.0
20260510065504 55 94 0.0 2.0 0.00 0.00 0.00 73 1011.0
20260510065004 55 288 0.0 2.0 0.00 0.00 0.00 73 1011.0
20260510064513 55 265 0.0 2.0 0.00 0.00 0.00 72 1010.8
20260510064007 54 95 0.0 2.0 0.00 0.00 0.00 75 1010.8
20260510063506 54 94 0.0 1.0 0.00 0.00 0.00 77 1010.9
20260510063025 54 100 0.0 1.0 0.00 0.00 0.00 78 1010.9
20260510062507 53 271 0.0 1.0 0.00 0.00 0.00 79 1010.9
20260510062008 52 271 0.0 1.0 0.00 0.00 0.00 77 1010.8
20260510061531 52 284 0.0 1.0 0.00 0.00 0.00 78 1010.9
20260510061010 52 274 0.0 1.0 0.00 0.00 0.00 76 1010.9
20260510060510 51 269 0.0 1.0 0.00 0.00 0.00 76 1010.8
20260510060038 51 297 0.0 1.0 0.00 0.00 0.00 76 1010.8
20260510055505 50 316 0.0 1.0 0.00 0.00 0.00 78 1010.8
20260510055004 50 316 0.0 2.0 0.00 0.00 0.00 78 1010.8
20260510054516 50 319 1.0 2.0 0.00 0.00 0.00 78 1010.9
20260510054007 50 302 1.0 2.0 0.00 0.00 0.00 77 1010.9
20260510053508 50 309 1.0 2.0 0.00 0.00 0.00 77 1010.9
20260510053034 50 337 0.0 1.0 0.00 0.00 0.00 77 1010.8
20260510052509 50 155 0.0 1.0 0.00 0.00 0.00 78 1010.8
20260510052008 50 139 0.0 1.0 0.00 0.00 0.00 77 1010.8
20260510051524 51 139 0.0 1.0 0.00 0.00 0.00 76 1010.8
20260510051007 52 131 0.0 1.0 0.00 0.00 0.00 75 1010.9
20260510050508 52 127 0.0 1.0 0.00 0.00 0.00 74 1010.9
20260510050023 53 127 0.0 1.0 0.00 0.00 0.00 72 1011.0
20260510045508 53 245 0.0 1.0 0.00 0.00 0.00 72 1011.0
20260510045012 53 138 0.0 1.0 0.00 0.00 0.00 71 1011.0
20260510044541 53 141 0.0 1.0 0.00 0.00 0.00 70 1011.0
20260510044009 53 207 0.0 2.0 0.00 0.00 0.00 69 1011.0
20260510043507 53 147 0.0 5.0 0.00 0.00 0.00 69 1011.0
20260510043013 53 122 2.0 6.0 0.00 0.00 0.00 69 1011.0
20260510042504 53 72 2.0 6.0 0.00 0.00 0.00 70 1011.0
20260510042007 53 96 1.0 5.0 0.00 0.00 0.00 69 1011.0
20260510041518 53 127 1.0 5.0 0.00 0.00 0.00 70 1011.0
20260510041007 53 125 2.0 5.0 0.00 0.00 0.00 70 1011.0
20260510040508 53 118 2.0 5.0 0.00 0.00 0.00 71 1011.1
20260510040036 53 125 1.0 4.0 0.00 0.00 0.00 71 1011.2
20260510035505 52 142 1.0 4.0 0.00 0.00 0.00 71 1011.2
20260510035007 52 126 2.0 4.0 0.00 0.00 0.00 72 1011.2
20260510034508 51 91 1.0 3.0 0.00 0.00 0.00 72 1011.3
20260510034003 52 97 0.0 4.0 0.00 0.00 0.00 71 1011.4
20260510033504 52 101 0.0 4.0 0.00 0.00 0.00 70 1011.5
20260510033011 52 129 0.0 3.0 0.00 0.00 0.00 70 1011.4
20260510032503 52 89 1.0 3.0 0.00 0.00 0.00 69 1011.3
20260510032006 52 138 1.0 3.0 0.00 0.00 0.00 69 1011.3
20260510031516 52 121 1.0 3.0 0.00 0.00 0.00 68 1011.3
20260510031007 52 144 1.0 3.0 0.00 0.00 0.00 68 1011.3
20260510030511 52 129 0.0 2.0 0.00 0.00 0.00 69 1011.4
20260510030020 52 143 0.0 2.0 0.00 0.00 0.00 69 1011.5
20260510025511 52 139 0.0 2.0 0.00 0.00 0.00 68 1011.6
20260510025006 52 155 0.0 4.0 0.00 0.00 0.00 68 1011.6
20260510024523 52 148 0.0 4.0 0.00 0.00 0.00 68 1011.7
20260510024006 52 127 1.0 3.0 0.00 0.00 0.00 68 1011.6
20260510023506 52 153 0.0 2.0 0.00 0.00 0.00 69 1011.6
20260510023027 52 124 0.0 2.0 0.00 0.00 0.00 69 1011.7
20260510022504 52 135 0.0 2.0 0.00 0.00 0.00 68 1011.7
20260510022003 52 137 0.0 2.0 0.00 0.00 0.00 68 1011.7
20260510021512 53 128 0.0 4.0 0.00 0.00 0.00 68 1011.7
20260510021007 52 123 1.0 4.0 0.00 0.00 0.00 68 1011.7
20260510020507 52 146 0.0 2.0 0.00 0.00 0.00 67 1011.7
20260510020021 52 179 0.0 1.0 0.00 0.00 0.00 67 1011.7
20260510015507 52 127 0.0 1.0 0.00 0.00 0.00 67 1011.7
20260510015012 52 226 0.0 2.0 0.00 0.00 0.00 67 1011.6
20260510014521 53 148 1.0 2.0 0.00 0.00 0.00 67 1011.7
20260510014006 53 218 1.0 3.0 0.00 0.00 0.00 66 1011.7
20260510013507 53 128 0.0 7.0 0.00 0.00 0.00 66 1011.8
20260510013025 53 247 1.0 7.0 0.00 0.00 0.00 66 1011.8
20260510012506 53 142 1.0 4.0 0.00 0.00 0.00 65 1011.9
20260510012010 53 127 2.0 4.0 0.00 0.00 0.00 65 1012.0
20260510011526 53 112 1.0 4.0 0.00 0.00 0.00 65 1012.0
20260510011006 53 152 2.0 4.0 0.00 0.00 0.00 64 1012.0
20260510010505 53 143 1.0 4.0 0.00 0.00 0.00 64 1012.1
20260510010011 53 87 1.0 5.0 0.00 0.00 0.00 64 1012.1
20260510005506 53 136 1.0 5.0 0.00 0.00 0.00 64 1012.2
20260510005002 53 140 1.0 4.0 0.00 0.00 0.00 64 1012.2
20260510004518 53 141 1.0 4.0 0.00 0.00 0.00 63 1012.3
20260510004005 53 127 1.0 4.0 0.00 0.00 0.00 63 1012.3
20260510003506 53 101 1.0 4.0 0.00 0.00 0.00 63 1012.4
20260510003024 53 134 1.0 4.0 0.00 0.00 0.00 62 1012.5
20260510002510 53 117 1.0 4.0 0.00 0.00 0.00 62 1012.6
20260510002008 53 160 0.0 2.0 0.00 0.00 0.00 62 1012.7
20260510001524 53 121 0.0 2.0 0.00 0.00 0.00 61 1012.7
20260510001010 54 130 0.0 2.0 0.00 0.00 0.00 61 1012.7
20260510000507 54 278 0.0 3.0 0.00 0.00 0.00 61 1012.7
20260510000026 54 272 0.0 3.0 0.00 0.00 0.00 60 1012.7
20260509235509 53 293 0.0 3.0 0.00 0.00 0.00 60 1012.7
20260509235010 54 260 0.0 3.0 0.00 0.00 0.00 60 1012.8
20260509234520 53 280 2.0 4.0 0.00 0.00 0.00 60 1012.8
20260509234011 54 291 1.0 4.0 0.00 0.00 0.00 60 1012.9
20260509233506 54 288 2.0 4.0 0.00 0.00 0.00 60 1012.9
20260509233019 54 290 3.0 4.0 0.00 0.00 0.00 60 1012.9
20260509232506 54 279 2.0 3.0 0.00 0.00 0.00 59 1012.9
20260509232008 54 280 1.0 2.0 0.00 0.00 0.00 60 1012.9
20260509231522 54 221 0.0 2.0 0.00 0.00 0.00 60 1012.9
20260509231006 54 96 0.0 2.0 0.00 0.00 0.00 60 1012.9
20260509230510 54 121 0.0 2.0 0.00 0.00 0.00 60 1012.9
20260509230028 54 282 0.0 3.0 0.00 0.00 0.00 60 1012.9
20260509225508 55 136 0.0 3.0 0.00 0.00 0.00 60 1013.0
20260509225009 55 134 1.0 5.0 0.00 0.00 0.00 59 1012.9
20260509224527 55 123 1.0 6.0 0.00 0.00 0.00 59 1012.9
20260509224010 55 103 1.0 6.0 0.00 0.00 0.00 59 1012.9
20260509223510 54 110 2.0 6.0 0.00 0.00 0.00 61 1012.9
20260509223027 54 127 1.0 2.0 0.00 0.00 0.00 61 1013.0
20260509222507 54 130 0.0 1.0 0.00 0.00 0.00 61 1013.0
20260509222007 54 115 0.0 2.0 0.00 0.00 0.00 61 1013.1
20260509221519 54 122 0.0 2.0 0.00 0.00 0.00 61 1013.2
20260509221007 54 127 0.0 2.0 0.00 0.00 0.00 61 1013.2
20260509220508 54 137 0.0 2.0 0.00 0.00 0.00 61 1013.3
20260509220004 54 134 0.0 1.0 0.00 0.00 0.00 62 1013.2
20260509215503 55 135 0.0 3.0 0.00 0.00 0.00 61 1013.3
20260509215003 55 102 0.0 4.0 0.00 0.00 0.00 61 1013.2
20260509214507 55 143 1.0 4.0 0.00 0.00 0.00 60 1013.3
20260509214004 55 239 0.0 4.0 0.00 0.00 0.00 61 1013.3
20260509213504 55 179 1.0 3.0 0.00 0.00 0.00 60 1013.2
20260509213012 55 233 0.0 3.0 0.00 0.00 0.00 60 1013.3
20260509212506 55 121 1.0 3.0 0.00 0.00 0.00 61 1013.3
20260509212010 55 219 0.0 2.0 0.00 0.00 0.00 61 1013.4
20260509211515 55 224 0.0 2.0 0.00 0.00 0.00 61 1013.4
20260509211007 55 150 0.0 2.0 0.00 0.00 0.00 61 1013.4
20260509210510 55 170 0.0 3.0 0.00 0.00 0.00 61 1013.4
20260509210022 55 206 0.0 3.0 0.00 0.00 0.00 61 1013.4
20260509205508 56 173 0.0 3.0 0.00 0.00 0.00 61 1013.4
20260509205003 56 132 0.0 4.0 0.00 0.00 0.00 61 1013.4
20260509204504 56 261 0.0 4.0 0.00 0.00 0.00 61 1013.5
20260509204004 56 252 0.0 2.0 0.00 0.00 0.00 61 1013.6
20260509203502 56 257 0.0 2.0 0.00 0.00 0.00 61 1013.5
20260509203007 56 276 0.0 4.0 0.00 0.00 0.00 61 1013.5
20260509202504 56 284 1.0 4.0 0.00 0.00 0.00 61 1013.4
20260509202007 56 276 1.0 3.0 0.00 0.00 0.00 62 1013.4
20260509201510 56 285 2.0 3.0 0.00 0.00 0.00 61 1013.3
20260509201006 57 152 0.0 2.0 0.00 0.00 0.00 60 1013.2
20260509200507 57 124 0.0 5.0 0.00 0.00 0.00 59 1013.1
20260509200016 57 124 1.0 5.0 0.00 0.00 0.00 59 1013.0
20260509195508 57 141 3.0 5.0 0.00 0.00 0.00 59 1013.0
20260509195006 57 124 0.0 7.0 0.00 0.00 0.00 60 1012.8
20260509194519 57 137 2.0 7.0 0.00 0.00 0.00 60 1012.8
20260509194007 57 60 2.0 6.0 0.00 0.00 0.00 60 1012.6
20260509193513 57 101 2.0 6.0 0.00 0.00 0.00 61 1012.7
20260509193004 57 117 2.0 6.0 0.00 0.00 0.00 61 1012.6
20260509192503 58 124 2.0 5.0 0.00 0.00 0.00 61 1012.5
20260509192006 58 141 2.0 5.0 0.00 0.00 0.00 61 1012.6
20260509191509 58 132 2.0 4.0 0.00 0.00 0.00 62 1012.5
20260509191003 58 77 2.0 5.0 0.00 0.00 0.00 61 1012.5
20260509190506 58 133 2.0 6.0 0.00 0.00 0.00 62 1012.4
20260509190020 58 104 1.0 7.0 0.00 0.00 0.00 62 1012.4
20260509185508 58 119 3.0 7.0 0.00 0.00 0.00 62 1012.4
20260509185006 58 110 2.0 7.0 0.00 0.00 0.00 62 1012.5
20260509184525 59 142 1.0 3.0 0.00 0.00 0.00 63 1012.4
20260509184007 59 148 0.0 5.0 0.00 0.00 0.00 64 1012.4
20260509183508 59 115 2.0 5.0 0.00 0.00 0.00 63 1012.4
20260509183024 59 144 1.0 5.0 0.00 0.00 0.00 64 1012.3
20260509182507 59 128 1.0 3.0 0.00 0.00 0.00 64 1012.2
20260509182010 59 125 1.0 2.0 0.00 0.00 0.00 65 1012.2
20260509181525 60 122 1.0 2.0 0.00 0.00 0.00 64 1012.3
20260509181006 60 141 0.0 3.0 0.00 0.00 0.00 64 1012.3
20260509180503 60 135 1.0 3.0 0.00 0.00 0.00 63 1012.3
20260509180011 60 127 1.0 3.0 0.00 0.00 0.00 63 1012.3
20260509175503 60 136 1.0 7.0 0.00 0.00 0.00 63 1012.3
20260509175009 60 134 1.0 7.0 0.00 0.00 0.00 63 1012.3
20260509174516 60 115 1.0 4.0 0.00 0.00 0.00 64 1012.3
20260509174010 60 143 1.0 7.0 0.00 0.00 0.00 65 1012.2
20260509173506 61 131 2.0 7.0 0.00 0.00 0.00 63 1012.2
20260509173021 61 122 3.0 7.0 0.00 0.00 0.00 62 1012.1
20260509172511 61 157 3.0 6.0 0.00 0.00 0.00 63 1012.1
20260509172009 61 138 2.0 6.0 0.00 0.00 0.00 63 1012.1
20260509171535 61 149 2.0 5.0 0.00 0.00 0.00 65 1012.2
20260509171008 61 161 4.0 5.0 0.00 0.00 0.00 64 1012.1
20260509170509 62 112 2.0 6.0 0.00 0.00 0.00 64 1012.2
20260509170028 62 150 2.0 6.0 0.00 0.00 0.00 64 1012.3
20260509165506 62 90 2.0 6.0 0.00 0.00 0.00 65 1012.3
20260509165005 62 211 3.0 6.0 0.00 0.00 0.00 65 1012.4
20260509164509 62 139 1.0 7.0 0.00 0.00 0.00 63 1012.4
20260509164002 63 139 3.0 7.0 0.00 0.00 0.00 61 1012.3
20260509163507 63 212 1.0 6.0 0.00 0.00 0.00 63 1012.3
20260509163014 63 204 1.0 6.0 0.00 0.00 0.00 63 1012.3
20260509162508 63 126 2.0 5.0 0.00 0.00 0.00 62 1012.4
20260509162005 64 129 1.0 5.0 0.00 0.00 0.00 61 1012.4
20260509161519 64 134 2.0 5.0 0.00 0.00 0.00 61 1012.5
20260509161010 64 147 1.0 5.0 0.00 0.00 0.00 61 1012.6
20260509160506 64 110 1.0 7.0 0.00 0.00 0.00 64 1012.7
20260509160025 64 149 3.0 7.0 0.00 0.00 0.00 61 1012.7
20260509155509 64 199 2.0 6.0 0.00 0.00 0.00 62 1012.7
20260509155011 64 117 1.0 5.0 0.00 0.00 0.00 63 1012.7
20260509154507 64 127 2.0 5.0 0.00 0.00 0.00 61 1012.7
20260509154008 64 211 2.0 8.0 0.00 0.00 0.00 61 1012.7
20260509153505 64 118 1.0 9.0 0.00 0.00 0.00 63 1012.7
20260509153012 64 141 3.0 9.0 0.00 0.00 0.00 61 1012.8
20260509152503 64 88 3.0 8.0 0.00 0.00 0.00 62 1012.9
20260509152008 64 134 2.0 7.0 0.00 0.00 0.00 60 1012.9
20260509151503 65 127 2.0 4.0 0.00 0.00 0.00 60 1012.9
20260509151003 65 161 0.0 4.0 0.00 0.00 0.00 62 1013.0
20260509150502 64 226 1.0 7.0 0.00 0.00 0.00 62 1013.0
20260509150003 64 209 4.0 8.0 0.00 0.00 0.00 61 1013.0
20260509145505 64 100 4.0 8.0 0.00 0.00 0.00 60 1013.1
20260509145003 65 158 2.0 10.0 0.00 0.00 0.00 59 1013.1
20260509144502 65 145 2.0 10.0 0.00 0.00 0.00 60 1013.1
20260509144002 66 86 1.0 7.0 0.00 0.00 0.00 60 1013.1
20260509143505 65 300 2.0 8.0 0.00 0.00 0.00 60 1013.1
20260509143014 65 202 2.0 8.0 0.00 0.00 0.00 60 1013.1
20260509142505 65 326 2.0 7.0 0.00 0.00 0.00 58 1013.1
20260509142007 65 134 2.0 8.0 0.00 0.00 0.00 59 1013.1
20260509141521 65 117 3.0 8.0 0.00 0.00 0.00 59 1013.2
20260509141009 65 138 2.0 11.0 0.00 0.00 0.00 59 1013.2
20260509140510 65 138 2.0 11.0 0.00 0.00 0.00 59 1013.2
20260509140019 65 245 2.0 8.0 0.00 0.00 0.00 60 1013.2
20260509135503 65 210 3.0 8.0 0.00 0.00 0.00 61 1013.3
20260509135002 65 184 4.0 10.0 0.00 0.00 0.00 62 1013.3
20260509134503 65 195 4.0 10.0 0.00 0.00 0.00 59 1013.4
20260509134003 66 140 3.0 6.0 0.00 0.00 0.00 59 1013.4
20260509133503 66 142 2.0 6.0 0.00 0.00 0.00 61 1013.4
20260509133008 67 120 1.0 7.0 0.00 0.00 0.00 59 1013.3
20260509132503 67 20 2.0 7.0 0.00 0.00 0.00 58 1013.2
20260509132007 67 139 2.0 5.0 0.00 0.00 0.00 58 1013.3
20260509131518 66 94 1.0 6.0 0.00 0.00 0.00 60 1013.4
20260509131006 65 141 1.0 6.0 0.00 0.00 0.00 60 1013.4
20260509130506 65 136 1.0 6.0 0.00 0.00 0.00 59 1013.4
20260509130018 65 113 2.0 6.0 0.00 0.00 0.00 59 1013.5
20260509125509 65 205 3.0 6.0 0.00 0.00 0.00 59 1013.5
20260509125006 65 116 2.0 6.0 0.00 0.00 0.00 59 1013.4
20260509124522 65 166 1.0 4.0 0.00 0.00 0.00 62 1013.4
20260509124003 65 152 1.0 5.0 0.00 0.00 0.00 58 1013.4
20260509123502 65 82 1.0 5.0 0.00 0.00 0.00 60 1013.5
20260509123004 66 135 1.0 4.0 0.00 0.00 0.00 61 1013.6
20260509122503 65 150 1.0 4.0 0.00 0.00 0.00 61 1013.5
20260509122006 65 132 1.0 4.0 0.00 0.00 0.00 61 1013.5
20260509121518 65 283 1.0 3.0 0.00 0.00 0.00 61 1013.7
20260509121007 65 118 1.0 3.0 0.00 0.00 0.00 62 1013.7
20260509120503 64 139 0.0 3.0 0.00 0.00 0.00 62 1013.7
20260509120016 64 121 1.0 4.0 0.00 0.00 0.00 64 1013.7
20260509115505 64 264 1.0 4.0 0.00 0.00 0.00 62 1013.7
20260509115007 64 152 1.0 4.0 0.00 0.00 0.00 64 1013.7
20260509114517 64 278 0.0 4.0 0.00 0.00 0.00 64 1013.7
20260509114012 65 276 1.0 4.0 0.00 0.00 0.00 64 1013.7
20260509113509 65 269 1.0 4.0 0.00 0.00 0.00 64 1013.7
20260509113024 65 82 1.0 4.0 0.00 0.00 0.00 60 1013.6
20260509112510 65 162 0.0 4.0 0.00 0.00 0.00 61 1013.7
20260509112002 66 203 1.0 4.0 0.00 0.00 0.00 59 1013.7
20260509111508 66 112 1.0 4.0 0.00 0.00 0.00 60 1013.6
20260509111006 65 288 2.0 4.0 0.00 0.00 0.00 61 1013.7
20260509110502 66 287 1.0 6.0 0.00 0.00 0.00 61 1013.8
20260509110011 65 41 1.0 6.0 0.00 0.00 0.00 60 1013.9
20260509105504 65 270 2.0 6.0 0.00 0.00 0.00 60 1014.0
20260509105004 65 264 1.0 4.0 0.00 0.00 0.00 62 1014.1
20260509104528 66 288 1.0 4.0 0.00 0.00 0.00 62 1014.1
20260509104011 65 243 0.0 5.0 0.00 0.00 0.00 62 1014.0
20260509103507 65 68 1.0 5.0 0.00 0.00 0.00 57 1014.0
20260509103020 66 112 1.0 3.0 0.00 0.00 0.00 56 1014.1
20260509102510 66 269 1.0 4.0 0.00 0.00 0.00 62 1014.1
20260509102011 66 109 2.0 5.0 0.00 0.00 0.00 60 1014.0
20260509101522 67 138 2.0 5.0 0.00 0.00 0.00 58 1014.2
20260509101007 66 226 2.0 5.0 0.00 0.00 0.00 59 1014.1
20260509100507 66 141 1.0 5.0 0.00 0.00 0.00 58 1014.2
20260509100019 66 157 1.0 5.0 0.00 0.00 0.00 59 1014.1
20260509095503 65 302 1.0 3.0 0.00 0.00 0.00 58 1014.2
20260509095003 65 204 1.0 3.0 0.00 0.00 0.00 61 1014.3
20260509094518 64 86 1.0 6.0 0.00 0.00 0.00 64 1014.2
20260509094004 63 136 2.0 6.0 0.00 0.00 0.00 60 1014.1
20260509093506 62 336 1.0 4.0 0.00 0.00 0.00 64 1014.2
20260509093016 62 86 0.0 4.0 0.00 0.00 0.00 65 1014.2
20260509092507 62 100 0.0 4.0 0.00 0.00 0.00 64 1014.1
20260509092007 62 88 1.0 4.0 0.00 0.00 0.00 70 1014.1
20260509091521 60 289 2.0 3.0 0.00 0.00 0.00 67 1014.1